Вернуться в каталог

STARLINK-11157

АктивенСвязьVLEO
NORAD 60122·PAYLOAD·🇺🇸 United States

Запущен Jun 24, 2024 с Vandenberg Space Force Base

Loading…

Ближайшие Пролёты (ближайшие 24 часа)

TLE

СвежийSource: CelesTrak SupGP

Эпоха: Sep 14, 2026, 21:20 UTC

1 60122C 24118K   26257.88937500  .00018365  00000+0  15119-3 0  2578
2 60122  53.1572   8.3795 0000994  77.1025 221.9619 15.69713436    18

Отслеживайте STARLINK-11157 в реальном времени с AllMySat

Download on the App Store